Weather in Luton

United Kingdom     51°53′31″N   0°25′15″E
temp.,
°C
wind,
m/s
gust,
m/s
humid.,
%
clouds,
%
prec.,
mm/h
press.,
hPa
HPBL,
m
17 april, sat
sat1701:000ese22881 0.0 103110
04:00−1ne22890 0.0 103110
07:000nne22880 0.0 103141
10:00+7ne34604 0.0 1030644
13:00+10ne335072 0.0 10291297
16:00+10nne3353100 0.0 10281400
19:00+8nne367399 0.0 1027178
22:00+3ene3382100 0.0 102836
18 april, sun
sun1801:00+2se1189100 0.0 102710
04:00+1sw118980 0.0 102610
07:00+2nne1188100 0.0 102613
10:00+7ne2261100 0.0 1026463
13:00+10nne1146100 0.0 10251002
16:00+11nne224449 0.0 10241276
19:00+9ne22655 0.0 102412
22:00+4ne22765 0.0 102515
19 april, mon
mon1901:00+3ene22915 0.0 102413
04:00+2e11895 0.0 102310
07:00+3e11875 0.0 102310
10:00+9ene22705 0.0 1022532
13:00+12ene226048 0.0 10211281
16:00+12e1165100 0.1 1019823
19:00+10nne1173100 0.1 101911
22:00+8ne118097 0.0 101910
20 april, tue
tue2001:00+8nne1187100 0.0 101912
04:00+7n1190100 0.0 101812
07:00+7nne2289100 0.0 101955
10:00+10nne237793 0.0 1019353
13:00+12n336994 0.3 1019723
16:00+13n4460100 0.1 10191133
19:00+10n3580100 0.1 1020215
22:00+9nne2282100 0.0 102143
21 april, wed
wed2101:00+7nne3491100 0.0 102292
04:00+6nne379455 0.0 1023266
07:00+5nne499887 0.0 1024322
10:00+9ne576112 0.0 1026803
13:00+12ne455528 0.0 10261452
16:00+12ne545458 0.0 10261673
19:00+9ne47719 0.0 1027337
22:00+3ene35884 0.0 102971